Appleton, MN

7:54 AM CDT on May 27, 2018 (GMT -0500)
Appleton Municipal

Weather History for KAQP - October, 2014

Change the Weather History Date:

Saturday, October 25, 2014

  Actual Average Record
Temperature  
Mean Temperature 52 °F -  
Max Temperature 64 °F 50 °F 73 °F (2000)
Min Temperature 39 °F 32 °F 21 °F (2005)
Degree Days  
Heating Degree Days 14    
Growing Degree Days 2 (Base 50)    
Moisture  
Dew Point 32 °F    
Average Humidity 46    
Maximum Humidity 81    
Minimum Humidity 22    
Precipitation  
Precipitation 0.00 in - - ()
Sea Level Pressure  
Sea Level Pressure 30.07 in    
Wind  
Wind Speed 8 mph (NW)    
Max Wind Speed 17 mph    
Max Gust Speed 21 mph    
Visibility 10 miles    
Events      
Averages and records for this station are not official NWS values.
T = Trace of Precipitation, MM = Missing Value Source: NWS Daily Summary

Daily Weather History Graph

Daily Weather History Graph

Search for Another Location

Airport or City:

Astronomy

Oct. 25, 2014 Rise Set
Actual Time 7:53 AM CDT 6:22 PM CDT
Civil Twilight 7:23 AM CDT 6:52 PM CDT
Nautical Twilight 6:48 AM CDT 7:26 PM CDT
Astronomical Twilight 6:14 AM CDT 8:00 PM CDT
Moon 9:36 AM CDT (10/25) 7:41 PM CDT (10/25)
Length of Visible Light 11h 29m
Length of Day
10h 28m
Waxing Crescent, 3% of the Moon is Illuminated
Oct 25
Waxing Crescent
Oct 30
First Quarter
Nov 6
Full
Nov 14
Last Quarter
Nov 22
New

Hourly Weather History & Observations

Time (CDT) Temp. Dew Point Humidity Pressure Visibility Wind Dir Wind Speed Gust Speed Precip Events Conditions
12:14 AM 59.0 °F 37.4 °F 45% 29.97 in 10.0 mi NW 10.4 mph - N/A   Clear
12:34 AM 57.2 °F 37.4 °F 48% 29.98 in 10.0 mi NW 9.2 mph - N/A   Mostly Cloudy
12:54 AM 57.2 °F 37.4 °F 48% 29.99 in 10.0 mi WNW 8.1 mph - N/A   Mostly Cloudy
1:14 AM 57.2 °F 37.4 °F 48% 30.00 in 10.0 mi WNW 8.1 mph - N/A   Scattered Clouds
1:35 AM 55.4 °F 37.4 °F 51% 30.00 in 10.0 mi WNW 9.2 mph - N/A   Scattered Clouds
1:54 AM 57.2 °F 37.4 °F 48% 30.01 in 10.0 mi WNW 10.4 mph - N/A   Scattered Clouds
2:14 AM 57.2 °F 37.4 °F 48% 30.01 in 10.0 mi NW 10.4 mph - N/A   Mostly Cloudy
2:34 AM 57.2 °F 37.4 °F 48% 30.01 in 10.0 mi WNW 10.4 mph - N/A   Scattered Clouds
2:55 AM 55.4 °F 37.4 °F 51% 30.01 in 10.0 mi WNW 8.1 mph - N/A   Clear
3:14 AM 55.4 °F 37.4 °F 51% 30.02 in 10.0 mi WNW 8.1 mph - N/A   Clear
3:35 AM 55.4 °F 37.4 °F 51% 30.03 in 10.0 mi WNW 8.1 mph - N/A   Clear
3:54 AM 55.4 °F 35.6 °F 47% 30.03 in 10.0 mi WNW 8.1 mph - N/A   Clear
4:15 AM 55.4 °F 35.6 °F 47% 30.03 in 10.0 mi WNW 8.1 mph - N/A   Clear
4:34 AM 55.4 °F 35.6 °F 47% 30.02 in 10.0 mi NW 8.1 mph - N/A   Clear
4:54 AM 55.4 °F 35.6 °F 47% 30.03 in 10.0 mi WNW 6.9 mph - N/A   Clear
5:15 AM 53.6 °F 35.6 °F 51% 30.04 in 10.0 mi WNW 9.2 mph - N/A   Clear
5:34 AM 53.6 °F 35.6 °F 51% 30.05 in 10.0 mi WNW 9.2 mph - N/A   Clear
5:54 AM 53.6 °F 35.6 °F 51% 30.05 in 10.0 mi WNW 8.1 mph - N/A   Clear
6:14 AM 53.6 °F 35.6 °F 51% 30.05 in 10.0 mi WNW 5.8 mph - N/A   Clear
6:34 AM 53.6 °F 37.4 °F 54% 30.06 in 10.0 mi NW 6.9 mph - N/A   Clear
6:54 AM 53.6 °F 35.6 °F 51% 30.06 in 10.0 mi WNW 5.8 mph - N/A   Clear
7:14 AM 53.6 °F 35.6 °F 51% 30.07 in 10.0 mi WNW 6.9 mph - N/A   Clear
7:35 AM 51.8 °F 35.6 °F 54% 30.08 in 10.0 mi WNW 6.9 mph - N/A   Clear
7:54 AM 50.0 °F 35.6 °F 58% 30.08 in 10.0 mi NW 6.9 mph - N/A   Clear
8:15 AM 48.2 °F 37.4 °F 66% 30.09 in 10.0 mi WNW 6.9 mph - N/A   Clear
8:34 AM 48.2 °F 37.4 °F 66% 30.09 in 10.0 mi WNW 5.8 mph - N/A   Clear
8:54 AM 50.0 °F 37.4 °F 62% 30.10 in 10.0 mi WNW 5.8 mph - N/A   Clear
9:14 AM 51.8 °F 37.4 °F 58% 30.10 in 10.0 mi WNW 5.8 mph - N/A   Clear
9:35 AM 53.6 °F 37.4 °F 54% 30.11 in 10.0 mi NW 8.1 mph - N/A   Clear
9:55 AM 55.4 °F 35.6 °F 47% 30.11 in 10.0 mi NW 9.2 mph - N/A   Clear
10:14 AM 57.2 °F 35.6 °F 44% 30.11 in 10.0 mi NW 10.4 mph - N/A   Clear
10:35 AM 57.2 °F 33.8 °F 41% 30.11 in 10.0 mi NNW 11.5 mph - N/A   Clear
10:55 AM 59.0 °F 33.8 °F 39% 30.12 in 10.0 mi NW 11.5 mph - N/A   Clear
11:14 AM 60.8 °F 30.2 °F 31% 30.13 in 10.0 mi NNW 11.5 mph 16.1 mph N/A   Clear
11:34 AM 60.8 °F 30.2 °F 31% 30.12 in 10.0 mi NNW 12.7 mph 19.6 mph N/A   Clear
11:54 AM 62.6 °F 30.2 °F 30% 30.13 in 10.0 mi NW 17.3 mph - N/A   Clear
12:14 PM 62.6 °F 28.4 °F 27% 30.13 in 10.0 mi North 12.7 mph 17.3 mph N/A   Clear
12:34 PM 62.6 °F 28.4 °F 27% 30.13 in 10.0 mi NW 15.0 mph - N/A   Clear
12:54 PM 62.6 °F 28.4 °F 27% 30.13 in 10.0 mi NNW 12.7 mph 17.3 mph N/A   Clear
1:14 PM 62.6 °F 28.4 °F 27% 30.12 in 10.0 mi NNW 12.7 mph - N/A   Clear
1:34 PM 62.6 °F 26.6 °F 26% 30.11 in 10.0 mi NW 12.7 mph 20.7 mph N/A   Clear
1:55 PM 64.4 °F 26.6 °F 24% 30.11 in 10.0 mi NW 13.8 mph 17.3 mph N/A   Clear
2:14 PM 64.4 °F 26.6 °F 24% 30.10 in 10.0 mi NW 15.0 mph 19.6 mph N/A   Clear
2:35 PM 64.4 °F 24.8 °F 22% 30.10 in 10.0 mi NW 16.1 mph - N/A   Clear
2:55 PM 64.4 °F 24.8 °F 22% 30.09 in 10.0 mi NW 11.5 mph 17.3 mph N/A   Clear
3:14 PM 64.4 °F 26.6 °F 24% 30.09 in 10.0 mi NW 11.5 mph - N/A   Clear
3:34 PM 64.4 °F 26.6 °F 24% 30.09 in 10.0 mi NW 15.0 mph - N/A   Clear
3:54 PM 64.4 °F 24.8 °F 22% 30.09 in 10.0 mi NW 15.0 mph - N/A   Clear
4:14 PM 64.4 °F 24.8 °F 22% 30.09 in 10.0 mi NW 10.4 mph - N/A   Clear
4:35 PM 62.6 °F 24.8 °F 24% 30.09 in 10.0 mi NW 10.4 mph - N/A   Clear
4:54 PM 62.6 °F 24.8 °F 24% 30.09 in 10.0 mi NW 9.2 mph - N/A   Clear
5:14 PM 62.6 °F 24.8 °F 24% 30.09 in 10.0 mi NNW 10.4 mph - N/A   Clear
5:34 PM 62.6 °F 26.6 °F 26% 30.08 in 10.0 mi NW 6.9 mph - N/A   Clear
5:54 PM 60.8 °F 26.6 °F 27% 30.08 in 10.0 mi NW 5.8 mph - N/A   Clear
6:14 PM 57.2 °F 26.6 °F 31% 30.08 in 10.0 mi NW 4.6 mph - N/A   Clear
6:34 PM 55.4 °F 26.6 °F 33% 30.08 in 10.0 mi NNW 4.6 mph - N/A   Clear
6:55 PM 51.8 °F 28.4 °F 41% 30.08 in 10.0 mi Calm Calm - N/A   Clear
7:14 PM 50.0 °F 28.4 °F 43% 30.07 in 10.0 mi Calm Calm - N/A   Clear
7:34 PM 48.2 °F 30.2 °F 50% 30.07 in 10.0 mi Calm Calm - N/A   Clear
7:55 PM 48.2 °F 28.4 °F 46% 30.07 in 10.0 mi NNE 3.5 mph - N/A   Clear
8:14 PM 44.6 °F 28.4 °F 53% 30.06 in 7.0 mi Calm Calm - N/A   Clear
8:35 PM 46.4 °F 28.4 °F 50% 30.06 in 7.0 mi Calm Calm - N/A   Clear
8:54 PM 44.6 °F 35.6 °F 71% 30.06 in 10.0 mi Calm Calm - N/A   Clear
9:14 PM 42.8 °F 33.8 °F 70% 30.06 in 10.0 mi Calm Calm - N/A   Clear
9:35 PM 41.0 °F 33.8 °F 76% 30.06 in 10.0 mi Calm Calm - N/A   Clear
9:54 PM 41.0 °F 33.8 °F 76% 30.06 in 7.0 mi Calm Calm - N/A   Clear
10:14 PM 39.2 °F 33.8 °F 81% 30.06 in 10.0 mi Calm Calm - N/A   Clear
10:35 PM 39.2 °F 33.8 °F 81% 30.05 in 10.0 mi Calm Calm - N/A   Clear
10:55 PM 39.2 °F 33.8 °F 81% 30.05 in 10.0 mi Calm Calm - N/A   Clear
11:14 PM 39.2 °F 33.8 °F 81% 30.04 in 10.0 mi Calm Calm - N/A   Clear
11:35 PM 39.2 °F 33.8 °F 81% 30.04 in 10.0 mi Calm Calm - N/A   Clear
11:55 PM 39.2 °F 32.0 °F 75% 30.04 in 10.0 mi Calm Calm - N/A   Clear